STAR ONE C3

Last updated on Thu Nov 21 2024 00:02:42 GMT+0000 (Coordinated Universal Time)

1 38991U 12062A 24324.99451145 -.00000247 00000+0 00000+0 0 9996 2 38991 0.0141 24.5269 0002238 213.6373 104.3919 1.00270974 43998
UTC large
Height (km)
Speed (km/s)
/
Latitude / Longitude
Inclination (degrees)
Orbital Period (minutes)
Azimuth
Elevation
Range (km)
Doppler Factor

Next 0 passes for location: London (51.5072 / 0.1276)

Sorry there are no passes over London.